• In Netherlands
  • List of Countries
  • For 7 days
  • Water Temperature
  • Satellite Maps
  • Weather Map
  • Weather Widgets
  • user-avatar
    Login

    Hourly Weather Stepanakert

    Today, 29 July, Saturday

    Time Temperature Precipitation Wind Pressure Humidity
    00:00 +26°C° 0 mm 2 mps 690 mmHg 46%
    01:00 +26°C° 0 mm 2 mps 690 mmHg 46%
    02:00 +26°C° 0 mm 2 mps 690 mmHg 47%
    03:00 +26°C° 0 mm 1 mps 690 mmHg 47%
    04:00 +26°C° 0 mm 1 mps 690 mmHg 47%
    05:00 +26°C° 0 mm 1 mps 690 mmHg 48%
    06:00 +26°C° 0 mm 1 mps 690 mmHg 48%
    07:00 +28°C° 0 mm 2 mps 690 mmHg 43%
    08:00 +31°C° 0 mm 2 mps 691 mmHg 39%
    09:00 +34°C° 0 mm 2 mps 691 mmHg 33%
    10:00 +35°C° 0 mm 2 mps 691 mmHg 30%
    11:00 +36°C° 0 mm 3 mps 691 mmHg 28%
    12:00 +38°C° 0 mm 3 mps 690 mmHg 25%
    13:00 +38°C° 0 mm 3 mps 690 mmHg 25%
    14:00 +38°C° 0 mm 3 mps 690 mmHg 25%
    15:00 +39°C° 0 mm 3 mps 690 mmHg 24%
    16:00 +38°C° 0 mm 3 mps 690 mmHg 27%
    17:00 +37°C° 0 mm 2 mps 690 mmHg 29%
    18:00 +36°C° 0 mm 2 mps 690 mmHg 32%
    19:00 +34°C° 0 mm 2 mps 690 mmHg 36%
    20:00 +31°C° 0 mm 2 mps 690 mmHg 41%
    21:00 +29°C° 0 mm 2 mps 690 mmHg 46%
    22:00 +28°C° 0 mm 2 mps 691 mmHg 47%
    23:00 +28°C° 0 mm 2 mps 691 mmHg 49%

    Tomorrow, 30 July, Sunday

    Time Temperature Precipitation Wind Pressure Humidity
    00:00 +27°C° 0 mm 2 mps 691 mmHg 50%
    01:00 +26°C° 0 mm 2 mps 691 mmHg 51%
    02:00 +26°C° 0 mm 2 mps 691 mmHg 52%
    03:00 +26°C° 0 mm 2 mps 692 mmHg 53%
    04:00 +26°C° 0 mm 2 mps 692 mmHg 54%
    05:00 +26°C° 0 mm 1 mps 692 mmHg 55%
    06:00 +26°C° 0 mm 1 mps 693 mmHg 56%
    07:00 +28°C° 0 mm 1 mps 693 mmHg 51%
    08:00 +29°C° 0 mm 2 mps 693 mmHg 45%
    09:00 +31°C° 0 mm 3 mps 694 mmHg 40%
    10:00 +33°C° 0 mm 3 mps 694 mmHg 38%
    11:00 +34°C° 0 mm 3 mps 694 mmHg 35%
    12:00 +35°C° 0 mm 3 mps 693 mmHg 33%
    13:00 +36°C° 0 mm 4 mps 693 mmHg 33%
    14:00 +36°C° 0 mm 4 mps 693 mmHg 33%
    15:00 +37°C° 0 mm 4 mps 693 mmHg 32%
    16:00 +35°C° 0.1 mm 5 mps 693 mmHg 36%
    17:00 +34°C° 0.1 mm 5 mps 692 mmHg 39%
    18:00 +33°C° 0.1 mm 5 mps 692 mmHg 42%
    19:00 +30°C° 0 mm 4 mps 692 mmHg 48%
    20:00 +28°C° 0 mm 3 mps 693 mmHg 54%
    21:00 +26°C° 0 mm 2 mps 693 mmHg 60%
    22:00 +26°C° 0 mm 2 mps 693 mmHg 61%
    23:00 +25°C° 0 mm 2 mps 693 mmHg 63%

    Day after tomorrow, 31 July, Monday

    Time Temperature Precipitation Wind Pressure Humidity
    00:00 +25°C° 0 mm 2 mps 693 mmHg 65%
    01:00 +24°C° 0 mm 2 mps 693 mmHg 65%
    02:00 +24°C° 0 mm 1 mps 694 mmHg 65%
    03:00 +23°C° 0 mm 1 mps 694 mmHg 64%
    04:00 +24°C° 0 mm 1 mps 694 mmHg 62%
    05:00 +24°C° 0 mm 1 mps 694 mmHg 59%
    06:00 +24°C° 0 mm 1 mps 694 mmHg 56%
    07:00 +26°C° 0 mm 2 mps 695 mmHg 51%
    08:00 +28°C° 0 mm 2 mps 695 mmHg 46%
    09:00 +30°C° 0 mm 3 mps 695 mmHg 42%
    10:00 +31°C° 0 mm 3 mps 695 mmHg 39%
    11:00 +33°C° 0 mm 4 mps 695 mmHg 36%
    12:00 +34°C° 0 mm 4 mps 695 mmHg 34%
    13:00 +35°C° 0 mm 4 mps 695 mmHg 33%
    14:00 +35°C° 0 mm 4 mps 694 mmHg 33%
    15:00 +35°C° 0 mm 4 mps 694 mmHg 33%
    16:00 +34°C° 0 mm 4 mps 694 mmHg 35%
    17:00 +34°C° 0 mm 4 mps 694 mmHg 37%
    18:00 +33°C° 0 mm 4 mps 694 mmHg 39%
    19:00 +30°C° 0 mm 4 mps 694 mmHg 45%
    20:00 +28°C° 0 mm 3 mps 694 mmHg 50%
    21:00 +25°C° 0 mm 2 mps 694 mmHg 56%
    22:00 +25°C° 0 mm 2 mps 694 mmHg 57%
    23:00 +25°C° 0 mm 2 mps 695 mmHg 59%

    1 August, Tuesday

    Time Temperature Precipitation Wind Pressure Humidity
    00:00 +24°C° 0 mm 2 mps 695 mmHg 60%
    01:00 +24°C° 0 mm 2 mps 695 mmHg 59%
    02:00 +24°C° 0 mm 1 mps 695 mmHg 58%
    03:00 +23°C° 0 mm 1 mps 695 mmHg 57%
    04:00 +24°C° 0 mm 1 mps 695 mmHg 55%
    05:00 +24°C° 0 mm 1 mps 695 mmHg 53%
    06:00 +24°C° 0 mm 1 mps 696 mmHg 51%
    07:00 +26°C° 0 mm 2 mps 696 mmHg 47%
    08:00 +28°C° 0 mm 2 mps 696 mmHg 42%
    09:00 +30°C° 0 mm 3 mps 697 mmHg 38%
    10:00 +31°C° 0 mm 3 mps 696 mmHg 35%
    11:00 +33°C° 0 mm 3 mps 696 mmHg 33%
    12:00 +34°C° 0 mm 3 mps 696 mmHg 31%
    13:00 +34°C° 0 mm 4 mps 696 mmHg 30%
    14:00 +35°C° 0 mm 4 mps 695 mmHg 30%
    15:00 +35°C° 0 mm 4 mps 695 mmHg 29%
    16:00 +34°C° 0 mm 4 mps 695 mmHg 32%
    17:00 +34°C° 0 mm 4 mps 695 mmHg 34%
    18:00 +33°C° 0 mm 4 mps 695 mmHg 37%
    19:00 +30°C° 0 mm 3 mps 695 mmHg 42%
    20:00 +28°C° 0 mm 3 mps 695 mmHg 48%
    21:00 +25°C° 0 mm 2 mps 696 mmHg 54%
    22:00 +25°C° 0 mm 2 mps 696 mmHg 56%
    23:00 +24°C° 0 mm 2 mps 696 mmHg 58%

    2 August, Wednesday

    Time Temperature Precipitation Wind Pressure Humidity
    00:00 +24°C° 0 mm 2 mps 696 mmHg 59%
    01:00 +23°C° 0 mm 2 mps 696 mmHg 60%
    02:00 +23°C° 0 mm 2 mps 696 mmHg 61%
    03:00 +23°C° 0 mm 1 mps 696 mmHg 62%
    04:00 +23°C° 0 mm 1 mps 696 mmHg 59%
    05:00 +23°C° 0 mm 1 mps 696 mmHg 57%
    06:00 +24°C° 0 mm 1 mps 696 mmHg 55%
    07:00 +26°C° 0 mm 2 mps 697 mmHg 50%
    08:00 +28°C° 0 mm 3 mps 697 mmHg 44%
    09:00 +29°C° 0 mm 4 mps 697 mmHg 39%
    10:00 +32°C° 0 mm 4 mps 697 mmHg 38%
    11:00 +33°C° 0 mm 4 mps 697 mmHg 36%
    12:00 +34°C° 0 mm 4 mps 696 mmHg 34%
    13:00 +34°C° 0 mm 4 mps 696 mmHg 34%
    14:00 +34°C° 0 mm 4 mps 696 mmHg 34%
    15:00 +35°C° 0 mm 5 mps 696 mmHg 33%
    16:00 +34°C° 0 mm 4 mps 695 mmHg 36%
    17:00 +33°C° 0 mm 4 mps 695 mmHg 38%
    18:00 +32°C° 0 mm 4 mps 695 mmHg 40%
    19:00 +29°C° 0 mm 3 mps 695 mmHg 45%
    20:00 +27°C° 0 mm 3 mps 696 mmHg 49%
    21:00 +25°C° 0 mm 2 mps 696 mmHg 54%
    22:00 +24°C° 0 mm 2 mps 696 mmHg 55%
    23:00 +24°C° 0 mm 2 mps 696 mmHg 57%

    3 August, Thursday

    Time Temperature Precipitation Wind Pressure Humidity
    00:00 +23°C° 0 mm 2 mps 695 mmHg 58%
    01:00 +23°C° 0 mm 2 mps 695 mmHg 59%
    02:00 +21°C° 0 mm 2 mps 695 mmHg 60%
    03:00 +21°C° 0 mm 2 mps 695 mmHg 61%
    04:00 +22°C° 0 mm 1 mps 695 mmHg 59%
    05:00 +23°C° 0 mm 1 mps 695 mmHg 58%
    06:00 +23°C° 0 mm 1 mps 695 mmHg 56%
    07:00 +25°C° 0 mm 2 mps 695 mmHg 50%
    08:00 +27°C° 0 mm 2 mps 695 mmHg 43%
    09:00 +29°C° 0 mm 2 mps 696 mmHg 36%
    10:00 +31°C° 0 mm 2 mps 695 mmHg 33%
    11:00 +33°C° 0 mm 3 mps 695 mmHg 30%
    12:00 +34°C° 0 mm 3 mps 695 mmHg 28%
    13:00 +35°C° 0 mm 3 mps 694 mmHg 27%
    14:00 +35°C° 0 mm 3 mps 694 mmHg 26%
    15:00 +36°C° 0 mm 4 mps 694 mmHg 26%
    16:00 +35°C° 0 mm 4 mps 693 mmHg 28%
    17:00 +34°C° 0 mm 4 mps 693 mmHg 31%
    18:00 +33°C° 0 mm 4 mps 693 mmHg 33%
    19:00 +30°C° 0 mm 3 mps 693 mmHg 37%
    20:00 +28°C° 0 mm 2 mps 693 mmHg 42%
    21:00 +26°C° 0 mm 2 mps 693 mmHg 46%
    22:00 +25°C° 0 mm 2 mps 693 mmHg 47%
    23:00 +25°C° 0 mm 2 mps 693 mmHg 48%
    Show more